GW1943 Weather Reports


time (UTC)temp
C
wind
direction
speed
KPH
gust
KPH
rain 1hr
cm
rain 24hr
cm
rain mn
cm
humidity
%
barometer
mb
20260505153055 13 217 1.6 3.2 0.00 0.00 0.00 88 1017.2
20260505152551 13 217 0.0 3.2 0.00 0.00 0.00 87 1016.9
20260505152047 13 216 0.0 0.0 0.00 0.00 0.00 88 1016.9
20260505151542 12 216 1.6 3.2 0.00 0.00 0.00 87 1017.0
20260505151040 12 218 1.6 3.2 0.00 0.00 0.00 88 1017.0
20260505150536 12 211 0.0 8.0 0.00 0.00 0.00 87 1017.0
20260505140501 12 211 1.6 1.6 0.00 0.00 0.00 88 1016.4
20260505124915 12 214 0.0 3.2 0.00 0.00 0.00 88 1015.7
20260505124412 12 218 0.0 3.2 0.00 0.00 0.00 88 1015.7
20260505123908 12 213 0.0 1.6 0.00 0.00 0.00 88 1015.4
20260505123404 12 212 4.8 11.3 0.00 0.00 0.00 88 1015.6
20260505122900 12 227 1.6 4.8 0.00 0.00 0.00 88 1015.7
20260505122358 12 211 1.6 3.2 0.00 0.00 0.00 88 1015.5
20260505121854 12 213 1.6 9.7 0.00 0.00 0.00 89 1015.4
20260505121351 12 208 0.0 3.2 0.00 0.00 0.00 89 1015.6
20260505120847 12 211 0.0 4.8 0.00 0.00 0.00 89 1015.6
20260505120343 12 204 4.8 4.8 0.00 0.00 0.00 89 1015.6
20260505115842 12 213 0.0 4.8 0.00 0.00 0.00 89 1015.2
20260505115340 12 216 0.0 0.0 0.00 0.00 0.00 89 1015.4
20260505114838 12 215 0.0 1.6 0.00 0.00 0.00 89 1015.4
20260505114334 12 215 0.0 1.6 0.00 0.00 0.00 89 1015.4
20260505113830 12 214 1.6 3.2 0.00 0.00 0.00 89 1015.5
20260505113327 12 214 0.0 0.0 0.00 0.00 0.00 89 1015.4
20260505112823 12 225 0.0 3.2 0.00 0.00 0.00 89 1015.1
20260505112320 12 213 1.6 4.8 0.00 0.00 0.00 89 1015.4
20260505111816 12 212 0.0 4.8 0.00 0.00 0.00 89 1015.0
20260505111311 12 215 3.2 4.8 0.00 0.00 0.00 89 1015.2
20260505110807 12 213 0.0 4.8 0.00 0.00 0.00 89 1015.3
20260505110305 12 214 0.0 3.2 0.00 0.00 0.00 89 1015.1
20260505101739 12 206 4.8 8.0 0.00 0.00 0.00 89 1014.9
20260505101235 12 210 0.0 3.2 0.00 0.00 0.00 90 1015.1
20260505100732 12 237 1.6 3.2 0.00 0.00 0.00 90 1014.8
20260505100229 12 212 3.2 8.0 0.00 0.00 0.00 90 1014.8
20260505095724 12 214 0.0 4.8 0.00 0.00 0.00 90 1014.8
20260505095222 12 205 1.6 3.2 0.00 0.00 0.00 90 1014.9
20260505094718 12 215 1.6 4.8 0.00 0.00 0.00 90 1014.7
20260505094214 12 212 0.0 4.8 0.00 0.00 0.00 90 1014.9
20260505093711 12 227 0.0 3.2 0.00 0.00 0.00 91 1014.8
20260505093208 12 209 3.2 8.0 0.00 0.00 0.00 91 1014.6
20260505092705 12 206 3.2 4.8 0.00 0.00 0.00 92 1014.7
20260505092204 12 211 0.0 1.6 0.00 0.00 0.00 91 1014.4
20260505091700 12 195 0.0 3.2 0.00 0.00 0.00 91 1014.7
20260505091158 12 212 0.0 4.8 0.00 0.00 0.00 91 1014.6
20260505090656 12 215 1.6 4.8 0.00 0.00 0.00 91 1014.6
20260505090154 12 209 1.6 8.0 0.00 0.00 0.00 91 1014.5
20260505085651 12 209 3.2 4.8 0.00 0.00 0.00 91 1014.6
20260505085149 12 200 1.6 3.2 0.00 0.00 0.00 91 1014.5
20260505084646 12 209 0.0 1.6 0.00 0.00 0.00 91 1014.5
20260505084145 12 213 0.0 0.0 0.00 0.00 0.00 90 1014.3
20260505083642 12 211 0.0 8.0 0.00 0.00 0.00 90 1014.3
20260505083138 12 211 3.2 4.8 0.00 0.00 0.00 90 1014.3
20260505082634 12 205 0.0 3.2 0.00 0.00 0.00 90 1014.5
20260505082131 12 218 1.6 4.8 0.00 0.00 0.00 90 1014.5
20260505081627 12 211 0.0 0.0 0.00 0.00 0.00 90 1014.6
20260505081125 12 215 0.0 8.0 0.00 0.00 0.00 89 1014.5
20260505080621 12 216 1.6 1.6 0.00 0.00 0.00 89 1014.4
20260505080117 12 212 0.0 3.2 0.00 0.00 0.00 90 1014.2
20260505075614 12 211 0.0 3.2 0.00 0.00 0.00 90 1014.2
20260505075111 12 212 0.0 1.6 0.00 0.00 0.00 89 1014.1
20260505074607 12 211 0.0 3.2 0.00 0.00 0.00 89 1014.0
20260505074105 12 211 1.6 1.6 0.00 0.00 0.00 89 1014.1
20260505073602 12 213 0.0 1.6 0.00 0.00 0.00 89 1014.2
20260505073101 12 217 1.6 1.6 0.00 0.00 0.00 89 1014.1
20260505072556 12 213 0.0 3.2 0.00 0.00 0.00 88 1014.0
20260505072053 12 214 1.6 1.6 0.00 0.00 0.00 88 1013.9
20260505071548 12 211 0.0 3.2 0.00 0.00 0.00 88 1013.9
20260505071046 12 212 1.6 3.2 0.00 0.00 0.00 88 1014.0
20260505070543 13 211 1.6 3.2 0.00 0.00 0.00 88 1013.7
20260505070039 13 215 1.6 1.6 0.00 0.00 0.00 87 1013.9
20260505065535 13 209 0.0 8.0 0.00 0.00 0.00 87 1013.8
20260505065032 13 216 0.0 8.0 0.00 0.00 0.00 87 1013.9
20260505064529 13 210 3.2 9.7 0.00 0.00 0.00 87 1013.9
20260505064027 13 222 1.6 11.3 0.00 0.00 0.00 87 1013.8
20260505063524 13 220 1.6 9.7 0.00 0.00 0.00 86 1013.8
20260505063020 13 204 0.0 3.2 0.00 0.00 0.00 86 1013.6
20260505062517 13 216 4.8 8.0 0.00 0.00 0.00 86 1013.5
20260505062014 13 213 1.6 9.7 0.00 0.00 0.00 85 1013.6
20260505061512 13 207 1.6 3.2 0.00 0.00 0.00 85 1013.2
20260505061009 13 215 1.6 4.8 0.00 0.00 0.00 85 1013.2
20260505060507 13 211 0.0 9.7 0.00 0.00 0.00 84 1013.2
20260505060003 14 213 0.0 4.8 0.00 0.00 0.00 84 1013.2
20260505055458 14 210 0.0 1.6 0.00 0.00 0.00 83 1013.4
20260505054955 14 201 1.6 4.8 0.00 0.00 0.00 83 1013.1
20260505054453 14 212 0.0 11.3 0.00 0.00 0.00 83 1013.2
20260505053950 15 213 0.0 1.6 0.00 0.00 0.00 82 1013.3
20260505053447 15 210 1.6 4.8 0.00 0.00 0.00 82 1012.9
20260505052944 15 217 1.6 4.8 0.00 0.00 0.00 81 1013.1
20260505052441 15 210 3.2 9.7 0.00 0.00 0.00 80 1013.2
20260505051938 15 213 1.6 8.0 0.00 0.00 0.00 79 1013.0
20260505051435 15 216 1.6 4.8 0.00 0.00 0.00 78 1013.0
20260505050933 16 213 0.0 3.2 0.00 0.00 0.00 78 1012.8
20260505050432 16 219 4.8 8.0 0.00 0.00 0.00 77 1012.7
20260505041359 18 218 1.6 3.2 0.00 0.00 0.00 73 1012.1
20260505040856 18 212 3.2 4.8 0.00 0.00 0.00 71 1011.7
20260505040354 18 219 1.6 4.8 0.00 0.00 0.00 72 1011.9
20260505035850 18 218 0.0 1.6 0.00 0.00 0.00 72 1011.9
20260505035346 18 231 1.6 3.2 0.00 0.00 0.00 70 1011.9
20260505034844 18 217 1.6 3.2 0.00 0.00 0.00 71 1011.5
20260505034340 19 216 4.8 4.8 0.00 0.00 0.00 68 1011.5
20260505033837 19 219 1.6 8.0 0.00 0.00 0.00 67 1011.4
20260505033334 20 225 3.2 4.8 0.00 0.00 0.00 67 1011.4
20260505032832 20 223 1.6 3.2 0.00 0.00 0.00 67 1011.4
20260505032328 20 245 3.2 4.8 0.00 0.00 0.00 65 1011.2
20260505031826 20 218 1.6 1.6 0.00 0.00 0.00 65 1011.3
20260505031322 21 221 1.6 4.8 0.00 0.00 0.00 63 1011.2
20260505030819 21 220 0.0 4.8 0.00 0.00 0.00 62 1011.0
20260505030315 21 226 3.2 4.8 0.00 0.00 0.00 60 1010.9
20260505025810 22 221 3.2 4.8 0.00 0.00 0.00 59 1010.8
20260505025309 22 221 1.6 8.0 0.00 0.00 0.00 57 1010.8
20260505024807 22 221 1.6 4.8 0.00 0.00 0.00 57 1011.0
20260505024304 22 220 0.0 4.8 0.00 0.00 0.00 58 1010.9
20260505023801 23 225 3.2 3.2 0.00 0.00 0.00 58 1010.9
20260505023258 23 221 3.2 4.8 0.00 0.00 0.00 59 1010.6
20260505022755 23 290 1.6 4.8 0.00 0.00 0.00 57 1010.6
20260505022252 24 213 1.6 4.8 0.00 0.00 0.00 57 1010.9
20260505021749 24 208 1.6 3.2 0.00 0.00 0.00 54 1011.0
20260505021246 25 216 1.6 3.2 0.00 0.00 0.00 54 1010.7
20260505020742 25 236 3.2 4.8 0.00 0.00 0.00 51 1010.8
20260505020237 25 225 1.6 3.2 0.00 0.00 0.00 49 1010.8
20260505015735 25 232 0.0 4.8 0.00 0.00 0.00 49 1010.8
20260505015231 25 231 1.6 8.0 0.00 0.00 0.00 48 1010.7
20260505014729 25 226 1.6 4.8 0.00 0.00 0.00 47 1010.8
20260505014226 26 235 3.2 4.8 0.00 0.00 0.00 46 1010.8
20260505013722 26 225 3.2 4.8 0.00 0.00 0.00 45 1010.9
20260505013220 26 255 1.6 4.8 0.00 0.00 0.00 45 1011.0
20260505012718 26 235 1.6 4.8 0.00 0.00 0.00 44 1010.7
20260505012215 26 242 1.6 4.8 0.00 0.00 0.00 45 1010.7
20260505011710 26 225 3.2 4.8 0.00 0.00 0.00 42 1010.9
20260505011208 26 239 1.6 8.0 0.00 0.00 0.00 45 1010.9
20260505010703 26 227 1.6 4.8 0.00 0.00 0.00 43 1010.9
20260505010200 26 244 3.2 4.8 0.00 0.00 0.00 42 1011.1
20260505005656 27 247 4.8 4.8 0.00 0.00 0.00 40 1011.0
20260505005153 27 229 3.2 8.0 0.00 0.00 0.00 40 1011.1
20260505004650 27 221 1.6 4.8 0.00 0.00 0.00 42 1010.8
20260505004147 27 220 3.2 4.8 0.00 0.00 0.00 41 1011.0
20260505003644 28 239 1.6 4.8 0.00 0.00 0.00 41 1010.9
20260505003142 28 236 0.0 0.0 0.00 0.00 0.00 37 1011.0
20260505002638 27 220 1.6 3.2 0.00 0.00 0.00 40 1011.1
20260505002136 28 244 4.8 8.0 0.00 0.00 0.00 38 1011.2
20260505001633 28 219 1.6 8.0 0.00 0.00 0.00 40 1011.1
20260505001130 28 226 3.2 4.8 0.00 0.00 0.00 36 1011.1
20260505000627 28 221 1.6 4.8 0.00 0.00 0.00 36 1011.1
20260505000125 28 219 1.6 4.8 0.00 0.00 0.00 36 1011.1
20260504235621 28 217 1.6 4.8 0.00 0.00 0.00 36 1011.0
20260504235118 28 281 3.2 4.8 0.00 0.00 0.00 33 1011.0
20260504234615 28 214 0.0 4.8 0.00 0.00 0.00 39 1011.4
20260504234112 28 207 4.8 4.8 0.00 0.00 0.00 31 1011.2
20260504233608 28 219 3.2 3.2 0.00 0.00 0.00 33 1011.1
20260504233104 28 201 1.6 4.8 0.00 0.00 0.00 34 1011.4
20260504232602 27 210 1.6 4.8 0.00 0.00 0.00 33 1011.2
20260504232059 28 227 1.6 3.2 0.00 0.00 0.00 33 1011.1
20260504231555 27 215 1.6 3.2 0.00 0.00 0.00 34 1011.2
20260504231051 27 210 0.0 8.0 0.00 0.00 0.00 35 1011.0
20260504230547 28 252 3.2 4.8 0.00 0.00 0.00 34 1011.0
20260504230047 28 218 1.6 3.2 0.00 0.00 0.00 35 1011.1
20260504225544 27 216 0.0 4.8 0.00 0.00 0.00 35 1011.2
20260504225041 28 222 3.2 4.8 0.00 0.00 0.00 32 1011.5
20260504224537 28 222 1.6 1.6 0.00 0.00 0.00 33 1011.6
20260504224035 28 237 1.6 4.8 0.00 0.00 0.00 33 1011.6
20260504223531 28 240 3.2 4.8 0.00 0.00 0.00 33 1011.6
20260504223027 27 217 0.0 8.0 0.00 0.00 0.00 35 1011.8
20260504222524 28 219 1.6 4.8 0.00 0.00 0.00 34 1011.6
20260504222021 27 224 3.2 4.8 0.00 0.00 0.00 35 1011.7
20260504221518 27 216 0.0 4.8 0.00 0.00 0.00 37 1011.8
20260504221015 27 212 4.8 8.0 0.00 0.00 0.00 35 1011.7
20260504220512 27 213 1.6 3.2 0.00 0.00 0.00 35 1011.8
20260504220009 27 222 0.0 8.0 0.00 0.00 0.00 37 1011.9
20260504215505 27 219 3.2 4.8 0.00 0.00 0.00 36 1011.9
20260504215003 27 238 6.4 8.0 0.00 0.00 0.00 35 1011.9
20260504214458 27 209 3.2 4.8 0.00 0.00 0.00 38 1011.8
20260504213955 27 215 1.6 4.8 0.00 0.00 0.00 39 1012.1
20260504213451 27 213 0.0 4.8 0.00 0.00 0.00 40 1012.1
20260504212949 27 254 1.6 3.2 0.00 0.00 0.00 41 1012.0
20260504212444 27 213 1.6 4.8 0.00 0.00 0.00 40 1012.1
20260504211942 27 217 1.6 4.8 0.00 0.00 0.00 37 1012.0
20260504211438 26 228 3.2 4.8 0.00 0.00 0.00 39 1012.1
20260504210936 26 219 1.6 8.0 0.00 0.00 0.00 41 1012.0
20260504210433 26 228 1.6 4.8 0.00 0.00 0.00 40 1012.0
20260504205930 26 224 1.6 3.2 0.00 0.00 0.00 40 1011.9
20260504205427 26 218 4.8 4.8 0.00 0.00 0.00 40 1012.1
20260504204926 26 225 3.2 4.8 0.00 0.00 0.00 40 1011.9
20260504204423 25 238 1.6 4.8 0.00 0.00 0.00 44 1012.2
20260504203923 25 276 3.2 8.0 0.00 0.00 0.00 42 1012.1
20260504203420 25 217 4.8 8.0 0.00 0.00 0.00 40 1012.2
20260504202915 25 241 1.6 8.0 0.00 0.00 0.00 42 1012.2
20260504202412 25 218 1.6 4.8 0.00 0.00 0.00 43 1012.3
20260504201909 25 213 3.2 8.0 0.00 0.00 0.00 46 1012.1
20260504201407 24 265 4.8 8.0 0.00 0.00 0.00 45 1012.1
20260504200904 24 274 4.8 8.0 0.00 0.00 0.00 43 1012.0
20260504200400 25 255 3.2 4.8 0.00 0.00 0.00 44 1011.9
20260504195857 25 219 1.6 3.2 0.00 0.00 0.00 45 1012.0
20260504195352 25 233 1.6 4.8 0.00 0.00 0.00 43 1012.0
20260504194849 23 221 1.6 4.8 0.00 0.00 0.00 43 1012.0
20260504194345 24 221 1.6 3.2 0.00 0.00 0.00 47 1012.3
20260504193841 23 272 3.2 4.8 0.00 0.00 0.00 45 1012.2
20260504193339 23 221 0.0 4.8 0.00 0.00 0.00 48 1012.1
20260504192838 23 215 4.8 4.8 0.00 0.00 0.00 46 1012.2
20260504192335 23 220 1.6 4.8 0.00 0.00 0.00 48 1012.3
20260504191833 23 231 3.2 4.8 0.00 0.00 0.00 50 1012.3
20260504191331 23 222 3.2 8.0 0.00 0.00 0.00 48 1012.5
20260504190826 22 246 3.2 4.8 0.00 0.00 0.00 49 1012.3
20260504190322 22 216 1.6 4.8 0.00 0.00 0.00 53 1012.1
20260504185819 22 223 1.6 4.8 0.00 0.00 0.00 53 1012.5
20260504185316 22 240 4.8 9.7 0.00 0.00 0.00 52 1012.6
20260504184812 22 236 3.2 4.8 0.00 0.00 0.00 52 1012.3
20260504184308 22 243 4.8 8.0 0.00 0.00 0.00 51 1012.3
20260504183804 22 228 1.6 8.0 0.00 0.00 0.00 53 1012.2
20260504183301 22 229 3.2 8.0 0.00 0.00 0.00 54 1012.3
20260504182759 22 221 1.6 3.2 0.00 0.00 0.00 54 1012.2
20260504182256 22 219 1.6 3.2 0.00 0.00 0.00 56 1012.8
20260504181753 21 230 1.6 4.8 0.00 0.00 0.00 56 1012.1
20260504181250 21 242 4.8 8.0 0.00 0.00 0.00 57 1012.7
20260504180750 21 224 1.6 4.8 0.00 0.00 0.00 57 1012.6
20260504180248 21 233 3.2 3.2 0.00 0.00 0.00 56 1012.6
20260504175745 21 220 1.6 4.8 0.00 0.00 0.00 59 1012.6
20260504175242 20 220 3.2 3.2 0.00 0.00 0.00 58 1012.7
20260504174740 20 230 3.2 4.8 0.00 0.00 0.00 58 1012.5
20260504174237 20 226 0.0 3.2 0.00 0.00 0.00 60 1012.6
20260504173733 20 223 0.0 3.2 0.00 0.00 0.00 62 1012.6
20260504173231 20 233 1.6 3.2 0.00 0.00 0.00 62 1012.6
20260504172727 20 234 1.6 3.2 0.00 0.00 0.00 63 1012.5
20260504172224 19 223 1.6 4.8 0.00 0.00 0.00 63 1012.2
20260504171720 19 226 1.6 3.2 0.00 0.00 0.00 63 1012.3
20260504171217 19 233 1.6 4.8 0.00 0.00 0.00 64 1012.6
20260504170714 18 233 3.2 3.2 0.00 0.00 0.00 63 1012.3
20260504170212 18 227 0.0 3.2 0.00 0.00 0.00 66 1012.3
20260504160130 16 224 1.6 3.2 0.00 0.00 0.00 73 1012.2